Terug naar catalogus

SCOUT G-1 DEB

ActiefPO
NORAD 19559·DEBRIS·🇺🇸 United States

Gelanceerd Aug 25, 1988 vanaf Vandenberg Space Force Base

Loading…

Volgende Passages (komende 24 uur)

TLE

VersSource: Space-Track

Epoch: Sep 14, 2026, 08:07 UTC

1 19559U 88074F   26257.33820696  .00000099  00000-0  14417-3 0  9993
2 19559  89.3865  33.2922 0097016  44.8807 343.9690 13.45627123866250

Volg SCOUT G-1 DEB in realtime met AllMySat

Download on the App Store